Regional Weather Roundup
Issued by NWS Green Bay, WI

Home | Current Version | Previous Version | Graphics & Text | Print | Product List | Glossary Off
Versions: 1 2 3 4 5 6 7 8 9 10 11 12 13 14 15 16 17 18 19 20 21 22 23 24 25 26 27 28 29 30 31 32 33 34 35 36 37 38 39 40 41 42 43 44 45 46 47 48 49 50

000
ASUS43 KGRB 230411
RWRGRB

NORTH-CENTRAL AND NORTHEAST WISCONSIN REGIONAL WEATHER ROUNDUP
NATIONAL WEATHER SERVICE GREEN BAY WI
1100 PM CDT THU JUN 22 2017

WIZ005-009-010>012-018-019-230500-
NORTH CENTRAL WISCONSIN

CITY           SKY/WX    TMP DP  RH WIND       PRES   REMARKS
IRONWOOD       CLEAR     62  55  77 SW6       29.70S
MANITOWISH WTR FOG       53  53 100 CALM      29.72S VSB 1/2
ARBOR VITAE    CLEAR     58  57  96 CALM      29.72S FOG
EAGLE RIVER    FOG       55  55 100 CALM      29.71S VSB 1/4
LAND O LAKES   FOG       54  54  99 CALM      29.73S VSB<1/4
RHINELANDER    CLOUDY    58  58 100 W5        29.73S FOG
PHILLIPS       CLOUDY    56  56 100 CALM      29.72S FOG
ANTIGO         DRIZZLE   62  62  99 NW5       29.72F
TOMAHAWK       NOT AVBL
MERRILL        PTCLDY    63  63 100 CALM      29.72F
$$

WIZ013-073-230500-
NORTHEAST WISCONSIN

CITY           SKY/WX    TMP DP  RH WIND       PRES   REMARKS
IRON MOUNTAIN  CLOUDY    59  56  89 N3        29.67F
MARINETTE      CLOUDY    64  64 100 CALM      29.69R FOG
OCONTO         CLOUDY    66  65  99 CALM      29.69R
$$

WIZ017-030-035>037-045-230500-
CENTRAL WISCONSIN

CITY           SKY/WX    TMP DP  RH WIND       PRES   REMARKS
MEDFORD        CLOUDY    61  60  97 CALM      29.72F
WAUSAU         MOCLDY    64  62  93 NW5       29.70F
MOSINEE        CLOUDY    63  63 100 NW6       29.73F
MARSHFIELD     CLOUDY    65  62  90 N5        29.71F
WISC RAPIDS    CLOUDY    66  65  96 NW5       29.72F FOG
STEVENS POINT  CLOUDY    64  64 100 CALM      29.71F
WAUPACA        CLOUDY    67  67  99 S3        29.72R
SHAWANO        CLOUDY    67  66  94 CALM      29.70S
CLINTONVILLE   CLOUDY    64  64 100 CALM      29.70F
WAUTOMA        LGT RAIN  65  64  97 CALM      29.71F
$$

WIZ038-039-048-051-230500-
FOX VALLEY

CITY           SKY/WX    TMP DP  RH WIND       PRES   REMARKS
NWS GREEN BAY  CLOUDY    67  67 100 S6        29.71R
APPLETON       LGT RAIN  64  64 100 W3        29.70S
OSHKOSH        CLOUDY    67  66  97 CALM      29.70F
FOND DU LAC    LGT RAIN  67  64  90 N3        29.72R
$$

WIZ022-050-052-230500-
EAST CENTRAL WISCONSIN

CITY           SKY/WX    TMP DP  RH WIND       PRES   REMARKS
EPHRAIM        MOCLDY    64  64  99 CALM      29.67F
WASHINGTON ISL FAIR      65  63  94 CALM      29.66F
STURGEON BAY     N/A     66  66 100 SW3         N/A  FOG
MANITOWOC      TSTM      67  65  93 VRB3      29.71F FOG
SHEBOYGAN      MOCLDY    66  66 100 CALM      29.71S FOG
$$

LMZ563-521-522-541>543-230500-
LAKESHORE

STATION/POSITION TIME  TEMP    WIND        PRES    VSBY  WAVE
                       AIR SEA DIR/SP/G                  HT/PER
                 (UTC) (F)     (DEG/KT/KT) (MB)    (MI)  (FT/S)
SHEBOYGAN LKSHOR 0400   62     360/  9/  9 1005.7R
KEWAUNEE LKSHORE 0348   59     180/  7/  7 1005.8R
NORTHPORT PIER   0340   66     280/  4/  5 1004.4F
N MID LAKE BUOY  0350   61 54  220/  6/  6 1005.0F         2/ 5
CHAMBERS ISLAND  0340   65     260/  2/  3 1004.1F
MENOMINEE LKSHOR 0348          270/  2/  3 1004.4F
$$




USA.gov is the U.S. government's official web portal to all federal, state and local government web resources and services.